Regional Weather Roundup
Issued by NWS Austin/San Antonio, TX

Home | Current Version | Previous Version | Text Only | Print | Product List | Glossary On
Versions: 1 2 3 4 5 6 7 8 9 10 11 12 13 14 15 16 17 18 19 20 21 22 23 24 25 26 27 28 29 30 31 32 33 34 35 36 37 38 39 40 41 42 43 44 45 46 47 48 49 50
000
ASUS44 KEWX 272202
RWREWX
SOUTH TEXAS REGIONAL WEATHER ROUNDUP
NATIONAL WEATHER SERVICE AUSTIN/SAN ANTONIO TX
500 PM CDT SUN MAY 27 2018

NOTE: "FAIR" INDICATED FEW OR NO CLOUDS BELOW 12,000 FEET WITH NO
SIGNIFICANT WEATHER AND/OR OBSTRUCTIONS TO VISIBILITY.

* - THESE STATIONS ARE NOT NWS OR FAA STATIONS...AND ARE NOT SUBJECT
    TO NWS AND FAA QUALITY CONTROL.

TXZ171-172-183>190-272300-
TEXAS HILL COUNTRY AND EDWARDS PLATEAU

CITY           SKY/WX    TMP DP  RH WIND       PRES   REMARKS
JUNCTION       MOSUNNY   99  61  28 SE9G20    29.78F HX  99
*LLANO         SUNNY    100  61  27 SE8       29.80F HX 101
BURNET         MOSUNNY   95  63  34 S6        29.82F HX  96
*HORSESHOE BAY PTSUNNY   98  62  30 SE8       29.78F HX  99
*KERRVILLE     SUNNY     97  63  32 S9        29.81F HX  98
*FREDERICKSBRG SUNNY     95  57  27 SE6       29.82S HX  94
*ROCKSPRINGS   SUNNY     95  61  31 S13G21    29.87F HX  95
*BOERNE STAGE  SUNNY     93  59  31 SE8       29.81F HX  92
*CASTROVILLE   SUNNY     97  60  29 SE8       29.78F HX  96
HONDO          SUNNY     97  67  37 SE9       29.77F HX 101
*UVALDE        SUNNY     97  66  35 SE12G20   29.75F HX 101
DEL RIO        SUNNY    105  54  18 E14G25    29.68F HX 103
LAUGHLIN AFB   NOT AVBL
CARRIZO SPRGS  SUNNY    102  55  21 S6        29.69F HX 101
*EAGLE PASS    CLEAR    108  50  14 SE13G20   29.70F HX 104
*FAITH RANCH   SUNNY    106  52  16 S8G16     29.71F HX 103
$$

TXZ173-191>194-202-209-217>225-228-272300-
CENTRAL AND SOUTH CENTRAL TEXAS

CITY           SKY/WX    TMP DP  RH WIND       PRES   REMARKS
GEORGETOWN     MOSUNNY   96  68  39 SE10      29.80  HX 101
AUSTIN/BERGSTM MOSUNNY   96  68  39 SE9       29.76F HX 101
AUSTIN/MABRY   SUNNY     94  67  41 VRB7      29.78F HX  97
*AUSTIN/EXEC   SUNNY     91  68  46 MISG      29.78F HX  95
*LAGO VISTA    SUNNY     95  61  32 S8        29.81F HX  96
SAN MARCOS     SUNNY     97  69  40 S12       29.77F HX 103
NEW BRAUNFELS  SUNNY     95  67  39 SE12      29.76F HX  99
RANDOLPH AFB   SUNNY     95  67  40 SE5       29.77F HX  99
PT SAN ANTONIO SUNNY     97  65  34 SE9       29.75F HX  99
SAN ANTONIO    MOSUNNY   97  64  33 S10       29.78F HX  99
STINSON FIELD  SUNNY     99  66  33 SE8       29.74F HX 103
*LA GRANGE     MOSUNNY   94  70  45 S3        29.75F HX  99
*GIDDINGS      MOSUNNY   94  67  41 SE3       29.79F HX  97
*GONZALES      SUNNY     97  69  39 CALM      29.75F HX 102
$$

TXZ163>164-176>182-195>201-210>213-226-227-235-272300-
SOUTHEAST TEXAS

CITY           SKY/WX    TMP DP  RH WIND       PRES   REMARKS
COLLEGE STN    MOSUNNY   93  68  43 E5        29.77F HX  97
*BRYAN         SUNNY     92  67  44 CALM      29.79F HX  96
*CALDWELL      MOSUNNY   93  70  47 SE9       29.78F HX  99
*CROCKETT      LGT RAIN  82  72  69 E13G22    29.84R
*BRENHAM       SUNNY     94  67  42 E5        29.78F HX  97
HUNTSVILLE     MOSUNNY   90  72  55 E6        29.80R HX  97
CONROE         SUNNY     88  75  65 S6        29.80S HX  97
HOUSTON BUSH   PTSUNNY   85  74  69 SE16      29.79S HX  92
HOUSTON HOBBY  PTSUNNY   87  75  67 E14       29.77F HX  96
*HOUSTON SW AP PTSUNNY   84  73  67 S9        29.79S HX  90
PEARLAND       PTSUNNY   86  75  69 SE13      29.80S HX  95
HOUSTON HOOKS  PTSUNNY   80  75  84 E3        29.79F HAZE
ELLINGTON FLD  PTSUNNY   86  73  66 E14       29.81S HX  93
SUGAR LAND     FAIR      94  69  44 CALM      29.76F HX  99
*HOUSTON EXEC    N/A     93  73  52 CALM      29.78F HX 102
*CLEVELAND MUN FAIR      90  69  50 CALM      29.80F HX  94
*WHARTON       MOSUNNY   93  64  37 E5        29.77F HX  94
*COLUMBUS      FAIR      93  66  40 SE3       29.78F HX  96
*EAGLE LAKE    MOCLDY    95  70  44 CALM      29.77F HX 101
$$

TXZ214>216-236>238-272300-
THE UPPER TEXAS COAST

CITY           SKY/WX    TMP DP  RH WIND       PRES   REMARKS
*ORANGE        PTSUNNY   76  75  98 SE3       29.84S
PORT ARTHUR    PTSUNNY   79  73  82 E12       29.81S
GALVESTON      FAIR      84  76  76 SE10      29.80F HX  93
ANGLETON       PTSUNNY   80  73  79 S12       29.80R THUNDER
*BAY CITY      SUNNY     91  74  57 S13       29.77F HX  99
PALACIOS       SUNNY     88  74  63 S12       29.77F HX  96
$$

TXZ229>234-239>247-272300-
TEXAS COASTAL BEND AND RIO GRANDE PLAINS

CITY           SKY/WX    TMP DP  RH WIND       PRES   REMARKS
VICTORIA       MOSUNNY   93  69  45 SE9G21    29.77F HX  98
*BEEVILLE      PTSUNNY   98  68  37 SE12      29.75F HX 103
ROCKPORT       SUNNY     87  73  62 SE12      29.77F HX  94
*PORT ARANSAS    N/A    N/A N/A N/A MISG        N/A
*PORT LAVACA   SUNNY     91  71  52 S10G17    29.78F HX  96
*INGLESIDE     SUNNY     90  71  53 S12       29.77F HX  96
CORPUS CHRISTI MOSUNNY   90  71  53 SE13      29.77F HX  96
CORPUS NAS     SUNNY     89  75  63 SE16      29.77F HX  99
*ROBSTOWN      SUNNY     91  69  48 E13       29.77S HX  96
ALICE          SUNNY     97  64  33 E12G21    29.74F HX  99
KINGSVILLE NAS MOSUNNY   96  66  37 E13       29.75F HX  99
COTULLA        SUNNY    101  59  24 SE10G21   29.71F HX 101
LAREDO         MOSUNNY  106  59  21 SE15G21   29.70F HX 106
$$

TXZ248>255-272300-
DEEP SOUTH TEXAS

CITY           SKY/WX    TMP DP  RH WIND       PRES   REMARKS
BROWNSVILLE    FAIR      94  70  45 E13G21    29.76F HX 100
PORT ISABEL    FAIR      90  71  53 E17       29.75F HX  96
*SOUTH PADRE   NOT AVBL
HARLINGEN      SUNNY     97  70  41 E21G28    29.73S HX 103
*HEBBRONVILLE  SUNNY     98  55  23 SE7       29.75F HX  97
MCALLEN        SUNNY    100  68  35 SE10      29.73F HX 105
*WESLACO       NOT AVBL
FALFURRIAS     SUNNY    100  65  31 E13G24    29.72S HX 103
EDINBURG       FAIR     100  61  27 SE9       29.72F HX 101
*ZAPATA        CLOUDY   105  51  16 E8G16     29.70F HX 102
$$

TXZ213>215-236>238-242>244-246-247-251-254-255-272300-
CMAN STATIONS

STATION/POSITION TIME  TEMP    WIND        PRES    WAVE
                       AIR SEA DIR/SP/G            HT/PER
                 (UTC) (F)     (DEG/KT/KT) (MB)    (FT/S)
SABINE PASS      2130   80 87  110/  3/  5 1011.2
SEA RIM ST PARK  2100   82     130/  6/  8 1010.0
NORTH JETTY/GLS  2118   79 86  110/  8/  9 1008.9
EAGLE POINT      2130   81 90  120/ 13/ 16 1009.2
MORGANS POINT    2130   82 85  130/ 11/ 18 1009.0
PORT O`CONNOR    2130   82 87  160/  8/  9 1008.6
PORT ARANSAS     2100   82 86  140/  9/ 11 1009.1
MALAQUITE BEACH  2130   81 85  110/ 11/ 12 1008.1
BAFFIN BAY       2130   83 90   90/ 13/ 16 1008.5
PORT ISABEL      2130   84 86  120/ 15/ 17 1008.3
$$



USA.gov is the U.S. government's official web portal to all federal, state and local government web resources and services.